Time,TemperatureF,DewpointF,PressureIn,WindDirection,WindDirectionDegrees,WindSpeedMPH,WindSpeedGustMPH,Humidity,HourlyPrecipIn,Conditions,Clouds,dailyrainin,SolarRadiationWatts/m^2,SoftwareType,DateUTC
2013-02-08 00:01:00,19.0,15.0,-100.00,ESE,121,1.0,3.0,85,-99.99,,,0.00,0.000000,,2013-02-08 07:01:00,
2013-02-08 00:32:00,20.0,14.0,-100.00,SE,126,2.0,5.0,76,-99.99,,,0.00,0.000000,,2013-02-08 07:32:00,
2013-02-08 00:42:00,20.0,14.0,-100.00,SE,126,2.0,5.0,76,-99.99,,,0.00,0.000000,,2013-02-08 07:42:00,
2013-02-08 00:52:00,20.0,14.0,-100.00,SE,126,2.0,5.0,76,-99.99,,,0.00,0.000000,,2013-02-08 07:52:00,
2013-02-08 01:01:00,20.0,14.0,-100.00,SE,126,2.0,5.0,76,-99.99,,,0.00,0.000000,,2013-02-08 08:01:00,
2013-02-08 01:22:00,19.0,14.0,-100.00,ESE,111,2.0,5.0,82,-99.99,,,0.00,0.000000,,2013-02-08 08:22:00,
2013-02-08 01:32:00,19.0,14.0,-100.00,ESE,111,2.0,5.0,82,-99.99,,,0.00,0.000000,,2013-02-08 08:32:00,
2013-02-08 01:42:00,19.0,14.0,-100.00,ESE,111,2.0,5.0,82,-99.99,,,0.00,0.000000,,2013-02-08 08:42:00,
2013-02-08 01:52:00,19.0,14.0,-100.00,ESE,111,2.0,5.0,82,-99.99,,,0.00,0.000000,,2013-02-08 08:52:00,
2013-02-08 02:02:00,19.0,14.0,-100.00,ESE,111,2.0,5.0,82,-99.99,,,0.00,0.000000,,2013-02-08 09:02:00,
2013-02-08 02:21:00,19.0,14.0,-100.00,ESE,122,2.0,4.0,82,-99.99,,,0.00,0.000000,,2013-02-08 09:21:00,
2013-02-08 02:32:00,19.0,14.0,-100.00,ESE,122,2.0,4.0,82,-99.99,,,0.00,0.000000,,2013-02-08 09:32:00,
2013-02-08 02:42:00,19.0,14.0,-100.00,ESE,122,2.0,4.0,82,-99.99,,,0.00,0.000000,,2013-02-08 09:42:00,
2013-02-08 02:52:00,19.0,14.0,-100.00,ESE,122,2.0,4.0,82,-99.99,,,0.00,0.000000,,2013-02-08 09:52:00,
2013-02-08 03:01:00,19.0,14.0,-100.00,ESE,122,2.0,4.0,82,-99.99,,,0.00,0.000000,,2013-02-08 10:01:00,
2013-02-08 03:32:00,19.0,13.0,-100.00,NNW,328,2.0,6.0,78,0.00,,,0.00,0.000000,,2013-02-08 10:32:00,
2013-02-08 03:42:00,19.0,13.0,-100.00,NNW,328,2.0,6.0,78,0.00,,,0.00,0.000000,,2013-02-08 10:42:00,
2013-02-08 03:52:00,19.0,13.0,-100.00,NNW,328,2.0,6.0,78,0.00,,,0.00,0.000000,,2013-02-08 10:52:00,
2013-02-08 04:01:00,19.0,13.0,-100.00,NNW,328,2.0,6.0,78,0.00,,,0.00,0.000000,,2013-02-08 11:01:00,
2013-02-08 04:32:00,19.0,15.0,-100.00,SE,131,1.0,5.0,85,0.00,,,0.00,0.000000,,2013-02-08 11:32:00,
2013-02-08 04:42:00,19.0,15.0,-100.00,SE,131,1.0,5.0,85,0.00,,,0.00,0.000000,,2013-02-08 11:42:00,
2013-02-08 04:52:00,19.0,15.0,-100.00,SE,131,1.0,5.0,85,0.00,,,0.00,0.000000,,2013-02-08 11:52:00,
2013-02-08 05:01:00,19.0,15.0,-100.00,SE,131,1.0,5.0,85,0.00,,,0.00,0.000000,,2013-02-08 12:01:00,
2013-02-08 05:33:00,19.0,16.0,-100.00,South,184,1.0,3.0,88,-99.99,,,0.00,0.000000,,2013-02-08 12:33:00,
2013-02-08 05:42:00,19.0,16.0,-100.00,South,184,1.0,3.0,88,-99.99,,,0.00,0.000000,,2013-02-08 12:42:00,
2013-02-08 05:52:00,19.0,16.0,-100.00,South,184,1.0,3.0,88,-99.99,,,0.00,0.000000,,2013-02-08 12:52:00,
2013-02-08 06:01:00,19.0,16.0,-100.00,South,184,1.0,3.0,88,-99.99,,,0.00,0.000000,,2013-02-08 13:01:00,
2013-02-08 06:22:00,23.0,17.0,-100.00,SSE,165,1.0,8.0,79,-99.99,,,0.00,0.000000,,2013-02-08 13:22:00,
2013-02-08 06:32:00,23.0,17.0,-100.00,SSE,165,1.0,8.0,79,-99.99,,,0.00,0.000000,,2013-02-08 13:32:00,
2013-02-08 06:42:00,23.0,17.0,-100.00,SSE,165,1.0,8.0,79,-99.99,,,0.00,0.000000,,2013-02-08 13:42:00,
2013-02-08 06:52:00,23.0,17.0,-100.00,SSE,165,1.0,8.0,79,-99.99,,,0.00,0.000000,,2013-02-08 13:52:00,
2013-02-08 07:01:00,23.0,17.0,-100.00,SSE,165,1.0,8.0,79,-99.99,,,0.00,0.000000,,2013-02-08 14:01:00,
2013-02-08 07:32:00,23.0,20.0,-100.00,East,83,1.0,6.0,89,-99.99,,,0.00,0.000000,,2013-02-08 14:32:00,
2013-02-08 07:42:00,23.0,20.0,-100.00,East,83,1.0,6.0,89,-99.99,,,0.00,0.000000,,2013-02-08 14:42:00,
2013-02-08 07:52:00,23.0,20.0,-100.00,East,83,1.0,6.0,89,-99.99,,,0.00,0.000000,,2013-02-08 14:52:00,
2013-02-08 08:01:00,23.0,20.0,-100.00,East,83,1.0,6.0,89,-99.99,,,0.00,0.000000,,2013-02-08 15:01:00,
2013-02-08 08:32:00,22.0,20.0,-100.00,ENE,68,1.0,5.0,93,-99.99,,,-99.99,3.000000,,2013-02-08 15:32:00,
2013-02-08 08:42:00,22.0,20.0,-100.00,ENE,68,1.0,5.0,93,-99.99,,,-99.99,3.000000,,2013-02-08 15:42:00,
2013-02-08 08:52:00,22.0,20.0,-100.00,ENE,68,1.0,5.0,93,-99.99,,,-99.99,3.000000,,2013-02-08 15:52:00,
2013-02-08 09:01:00,22.0,20.0,-100.00,ENE,68,1.0,5.0,93,-99.99,,,-99.99,3.000000,,2013-02-08 16:01:00,
2013-02-08 09:22:00,25.0,22.0,-100.00,ENE,58,1.0,3.0,89,0.00,,,0.00,54.000000,,2013-02-08 16:22:00,
2013-02-08 09:32:00,25.0,22.0,-100.00,ENE,58,1.0,3.0,89,0.00,,,0.00,54.000000,,2013-02-08 16:32:00,
2013-02-08 09:42:00,25.0,22.0,-100.00,ENE,58,1.0,3.0,89,0.00,,,0.00,54.000000,,2013-02-08 16:42:00,
2013-02-08 09:52:00,25.0,22.0,-100.00,ENE,58,1.0,3.0,89,0.00,,,0.00,54.000000,,2013-02-08 16:52:00,
2013-02-08 10:02:00,25.0,22.0,-100.00,ENE,58,1.0,3.0,89,0.00,,,0.00,54.000000,,2013-02-08 17:02:00,
2013-02-08 10:33:00,29.0,21.0,-100.00,East,83,1.0,5.0,72,-99.99,,,0.00,129.000000,,2013-02-08 17:33:00,
2013-02-08 10:42:00,29.0,21.0,-100.00,East,83,1.0,5.0,72,-99.99,,,0.00,129.000000,,2013-02-08 17:42:00,
2013-02-08 10:52:00,29.0,21.0,-100.00,East,83,1.0,5.0,72,-99.99,,,0.00,129.000000,,2013-02-08 17:52:00,
2013-02-08 11:01:00,29.0,21.0,-100.00,East,83,1.0,5.0,72,-99.99,,,0.00,129.000000,,2013-02-08 18:01:00,
2013-02-08 11:36:00,46.0,18.0,-100.00,NE,54,1.0,5.0,32,-99.99,,,0.00,378.000000,,2013-02-08 18:36:00,
2013-02-08 11:44:00,46.0,18.0,-100.00,NE,54,1.0,5.0,32,-99.99,,,0.00,378.000000,,2013-02-08 18:44:00,
2013-02-08 11:52:00,46.0,18.0,-100.00,NE,54,1.0,5.0,32,-99.99,,,0.00,378.000000,,2013-02-08 18:52:00,
2013-02-08 12:01:00,46.0,18.0,-100.00,NE,54,1.0,5.0,32,-99.99,,,0.00,378.000000,,2013-02-08 19:01:00,
2013-02-08 12:22:00,47.0,18.0,-100.00,NNW,345,1.0,5.0,31,-99.99,,,0.00,547.000000,,2013-02-08 19:22:00,
2013-02-08 12:33:00,47.0,18.0,-100.00,NNW,345,1.0,5.0,31,-99.99,,,0.00,547.000000,,2013-02-08 19:33:00,
2013-02-08 12:42:00,47.0,18.0,-100.00,NNW,345,1.0,5.0,31,-99.99,,,0.00,547.000000,,2013-02-08 19:42:00,
2013-02-08 12:52:00,47.0,18.0,-100.00,NNW,345,1.0,5.0,31,-99.99,,,0.00,547.000000,,2013-02-08 19:52:00,
2013-02-08 13:01:00,47.0,18.0,-100.00,NNW,345,1.0,5.0,31,-99.99,,,0.00,547.000000,,2013-02-08 20:01:00,
2013-02-08 13:22:00,44.0,17.0,-100.00,NNW,334,2.0,6.0,33,-99.99,,,0.00,591.000000,,2013-02-08 20:22:00,
2013-02-08 13:32:00,44.0,17.0,-100.00,NNW,334,2.0,6.0,33,-99.99,,,0.00,591.000000,,2013-02-08 20:32:00,
2013-02-08 13:42:00,44.0,17.0,-100.00,NNW,334,2.0,6.0,33,-99.99,,,0.00,591.000000,,2013-02-08 20:42:00,
2013-02-08 13:52:00,44.0,17.0,-100.00,NNW,334,2.0,6.0,33,-99.99,,,0.00,591.000000,,2013-02-08 20:52:00,
2013-02-08 14:01:00,44.0,17.0,-100.00,NNW,334,2.0,6.0,33,-99.99,,,0.00,591.000000,,2013-02-08 21:01:00,
2013-02-08 14:33:00,42.0,19.0,-100.00,North,5,1.0,6.0,40,-99.99,,,0.03,324.000000,,2013-02-08 21:33:00,
2013-02-08 14:42:00,42.0,19.0,-100.00,North,5,1.0,6.0,40,-99.99,,,0.03,324.000000,,2013-02-08 21:42:00,
2013-02-08 14:52:00,42.0,19.0,-100.00,North,5,1.0,6.0,40,-99.99,,,0.03,324.000000,,2013-02-08 21:52:00,
2013-02-08 15:01:00,42.0,19.0,-100.00,North,5,1.0,6.0,40,-99.99,,,0.03,324.000000,,2013-02-08 22:01:00,
2013-02-08 15:22:00,39.0,18.0,-100.00,North,1,1.0,5.0,43,-99.99,,,0.05,216.000000,,2013-02-08 22:22:00,
2013-02-08 15:32:00,39.0,18.0,-100.00,North,1,1.0,5.0,43,-99.99,,,0.05,216.000000,,2013-02-08 22:32:00,
2013-02-08 15:42:00,39.0,18.0,-100.00,North,1,1.0,5.0,43,-99.99,,,0.05,216.000000,,2013-02-08 22:42:00,
2013-02-08 15:52:00,39.0,18.0,-100.00,North,1,1.0,5.0,43,-99.99,,,0.05,216.000000,,2013-02-08 22:52:00,
2013-02-08 16:01:00,39.0,18.0,-100.00,North,1,1.0,5.0,43,-99.99,,,0.05,216.000000,,2013-02-08 23:01:00,
2013-02-08 16:32:00,40.0,18.0,-100.00,WNW,289,1.0,3.0,41,0.02,,,0.07,145.000000,,2013-02-08 23:32:00,
2013-02-08 16:42:00,40.0,18.0,-100.00,WNW,289,1.0,3.0,41,0.02,,,0.07,145.000000,,2013-02-08 23:42:00,
2013-02-08 16:52:00,40.0,18.0,-100.00,WNW,289,1.0,3.0,41,0.02,,,0.07,145.000000,,2013-02-08 23:52:00,
2013-02-08 17:01:00,40.0,18.0,-100.00,WNW,289,1.0,3.0,41,0.02,,,0.07,145.000000,,2013-02-09 00:01:00,
2013-02-08 17:32:00,33.0,24.0,-100.00,WSW,237,2.0,5.0,69,-99.99,,,0.07,79.000000,,2013-02-09 00:32:00,
2013-02-08 17:42:00,33.0,24.0,-100.00,WSW,237,2.0,5.0,69,-99.99,,,0.07,79.000000,,2013-02-09 00:42:00,
2013-02-08 17:52:00,33.0,24.0,-100.00,WSW,237,2.0,5.0,69,-99.99,,,0.07,79.000000,,2013-02-09 00:52:00,
2013-02-08 18:01:00,33.0,24.0,-100.00,WSW,237,2.0,5.0,69,-99.99,,,0.07,79.000000,,2013-02-09 01:01:00,
2013-02-08 18:22:00,30.0,23.0,-100.00,SW,231,2.0,6.0,75,0.00,,,-99.99,7.000000,,2013-02-09 01:22:00,
2013-02-08 18:32:00,30.0,23.0,-100.00,SW,231,2.0,6.0,75,0.00,,,-99.99,7.000000,,2013-02-09 01:32:00,
2013-02-08 18:42:00,30.0,23.0,-100.00,SW,231,2.0,6.0,75,0.00,,,-99.99,7.000000,,2013-02-09 01:42:00,
2013-02-08 18:52:00,30.0,23.0,-100.00,SW,231,2.0,6.0,75,0.00,,,-99.99,7.000000,,2013-02-09 01:52:00,
2013-02-08 19:01:00,30.0,23.0,-100.00,SW,231,2.0,6.0,75,0.00,,,-99.99,7.000000,,2013-02-09 02:01:00,
2013-02-08 19:32:00,28.0,25.0,-100.00,ESE,117,0.0,6.0,88,0.00,,,0.07,0.000000,,2013-02-09 02:32:00,
2013-02-08 19:42:00,28.0,25.0,-100.00,ESE,117,0.0,6.0,88,0.00,,,0.07,0.000000,,2013-02-09 02:42:00,
2013-02-08 19:52:00,28.0,25.0,-100.00,ESE,117,0.0,6.0,88,0.00,,,0.07,0.000000,,2013-02-09 02:52:00,
2013-02-08 20:01:00,28.0,25.0,-100.00,ESE,117,0.0,6.0,88,0.00,,,0.07,0.000000,,2013-02-09 03:01:00,
2013-02-08 20:32:00,28.0,22.0,-100.00,NE,34,1.0,7.0,79,0.00,,,0.07,0.000000,,2013-02-09 03:32:00,
2013-02-08 20:42:00,28.0,22.0,-100.00,NE,34,1.0,7.0,79,0.00,,,0.07,0.000000,,2013-02-09 03:42:00,
2013-02-08 20:52:00,28.0,22.0,-100.00,NE,34,1.0,7.0,79,0.00,,,0.07,0.000000,,2013-02-09 03:52:00,
2013-02-08 21:02:00,28.0,22.0,-100.00,NE,34,1.0,7.0,79,0.00,,,0.07,0.000000,,2013-02-09 04:02:00,
2013-02-08 21:23:00,28.0,22.0,-100.00,NE,51,2.0,9.0,78,0.00,,,0.07,0.000000,,2013-02-09 04:23:00,
2013-02-08 21:32:00,28.0,22.0,-100.00,NE,51,2.0,9.0,78,0.00,,,0.07,0.000000,,2013-02-09 04:32:00,
2013-02-08 21:42:00,28.0,22.0,-100.00,NE,51,2.0,9.0,78,0.00,,,0.07,0.000000,,2013-02-09 04:42:00,
2013-02-08 21:52:00,28.0,22.0,-100.00,NE,51,2.0,9.0,78,0.00,,,0.07,0.000000,,2013-02-09 04:52:00,
2013-02-08 22:02:00,28.0,22.0,-100.00,NE,51,2.0,9.0,78,0.00,,,0.07,0.000000,,2013-02-09 05:02:00,
2013-02-08 22:32:00,27.0,20.0,-100.00,South,180,1.0,7.0,75,0.00,,,0.07,0.000000,,2013-02-09 05:32:00,
2013-02-08 22:42:00,27.0,20.0,-100.00,South,180,1.0,7.0,75,0.00,,,0.07,0.000000,,2013-02-09 05:42:00,
2013-02-08 22:52:00,27.0,20.0,-100.00,South,180,1.0,7.0,75,0.00,,,0.07,0.000000,,2013-02-09 05:52:00,
2013-02-08 23:01:00,27.0,20.0,-100.00,South,180,1.0,7.0,75,0.00,,,0.07,0.000000,,2013-02-09 06:01:00,
2013-02-08 23:32:00,26.0,19.0,-100.00,NE,45,1.0,8.0,76,0.00,,,0.07,0.000000,,2013-02-09 06:32:00,
2013-02-08 23:42:00,26.0,19.0,-100.00,NE,45,1.0,8.0,76,0.00,,,0.07,0.000000,,2013-02-09 06:42:00,
2013-02-08 23:52:00,26.0,19.0,-100.00,NE,45,1.0,8.0,76,0.00,,,0.07,0.000000,,2013-02-09 06:52:00,